Home > Weather > Barcelona > Past weeks

Flag for Spain Past Weather in Barcelona, Barcelona, Spain — Yesterday and Last 2 Weeks

Now
79 °F

Passing clouds.


Feels Like: 82 °F
Forecast: 70 / 87 °F
Wind: 12 mph from South

Location: Barcelona Airport

Current Time: Jul 29, 2016 at 12:26:04 PM

Latest Report: Jul 29, 2016 at 11:30 AM


Visibility: N/A

Pressure: 30.04 "Hg

Humidity: 79%

Dew Point: 72 °F

Location of BarcelonaLocation

Past Weather in Barcelona — Graph

°F

Barcelona Temperature Yesterday

Maximum temperature yesterday: 82 °F (at 2:30 PM)
Minimum temperature yesterday: 72 °F (at 6:00 AM)
Average temperature yesterday: 78 °F

High & Low Weather Summary for the Past Weeks

 TemperatureHumidityPressure
High84 °F (Jul 24, 11:30 AM)94% (Jul 21, 1:30 AM)30.21 "Hg (Jul 21, 1:30 AM)
Low66 °F (Jul 15, 4:30 AM)39% (Jul 15, 11:00 AM)29.86 "Hg (Jul 22, 5:00 AM)
Average75 °F71%30.07 "Hg
* Reported Jul 14 11:00 AM — Jul 29 11:00 AM, Barcelona, Weather by CustomWeather, © 2016

Note: Actual official high and low records may vary slightly from our data, if they occured in-between our weather recording intervals... More about our weather records

Advertising

Barcelona Weather History for the Previous 24 Hours

Scroll right to see more
 ConditionsComfort  
Time TempWeatherWind HumidityBarometerVisibility
11:00 AM
Fri, Jul 29
79 °FPassing clouds.10 mph79%30.04 "HgN/A
10:30 AM79 °FPassing clouds.8 mph84%30.04 "HgN/A
10:00 AM79 °FScattered clouds.6 mph79%30.04 "HgN/A
9:30 AM77 °FPassing clouds.3 mph83%30.04 "HgN/A
9:00 AM77 °FPassing clouds.3 mph79%30.04 "HgN/A
8:30 AM75 °FScattered clouds.5 mph78%30.04 "HgN/A
8:00 AM75 °FScattered clouds.3 mph78%30.04 "HgN/A
7:30 AM73 °FPassing clouds.5 mph83%30.04 "HgN/A
7:00 AM73 °FPassing clouds.5 mph83%30.04 "HgN/A
6:30 AM72 °FPassing clouds.5 mph83%30.04 "HgN/A
6:00 AM72 °FPassing clouds.6 mph88%30.04 "HgN/A
5:30 AM72 °FClear.6 mph83%30.04 "Hg10 mi
5:00 AM73 °FPassing clouds.6 mph78%30.04 "HgN/A
4:30 AM73 °FPassing clouds.5 mph83%30.04 "HgN/A
4:00 AM73 °FPassing clouds.5 mph83%30.04 "HgN/A
3:30 AM73 °FPassing clouds.5 mph83%30.04 "HgN/A
3:00 AM73 °FPassing clouds.5 mph83%30.04 "HgN/A
2:30 AM75 °FPassing clouds.No wind78%30.04 "HgN/A
2:00 AM75 °FPassing clouds.3 mph78%30.04 "HgN/A
1:30 AM75 °FPassing clouds.5 mph78%30.07 "HgN/A
1:00 AM77 °FPassing clouds.No wind74%30.07 "HgN/A
12:30 AM77 °FPassing clouds.No wind74%30.04 "HgN/A
12:00 AM77 °FPassing clouds.No wind79%30.04 "HgN/A
11:30 PM
Thu, Jul 28
77 °FPassing clouds.3 mph79%30.04 "HgN/A
11:00 PM77 °FPassing clouds.5 mph79%30.04 "HgN/A
10:30 PM77 °FPassing clouds.5 mph79%30.04 "HgN/A
10:00 PM79 °FPassing clouds.7 mph74%30.04 "HgN/A
9:30 PM79 °FPassing clouds.8 mph79%30.04 "HgN/A
9:00 PM79 °FPassing clouds.9 mph79%30.04 "HgN/A
8:30 PM81 °FPassing clouds.12 mph70%30.01 "HgN/A
8:00 PM81 °FPassing clouds.13 mph70%30.01 "HgN/A
7:30 PM82 °FPassing clouds.13 mph70%30.01 "HgN/A
7:00 PM81 °FPassing clouds.13 mph70%30.01 "HgN/A
6:30 PM81 °FPassing clouds.15 mph70%30.01 "HgN/A
6:00 PM82 °FPassing clouds.15 mph66%30.04 "HgN/A
5:30 PM82 °FPassing clouds.15 mph66%30.04 "HgN/A
5:00 PM82 °FPassing clouds.14 mph70%30.04 "HgN/A
4:30 PM82 °FPassing clouds.15 mph70%30.04 "HgN/A
4:00 PM82 °FPassing clouds.15 mph66%30.04 "HgN/A
3:30 PM82 °FPassing clouds.17 mph66%30.07 "HgN/A
3:00 PM81 °FPassing clouds.16 mph70%30.07 "HgN/A
2:30 PM82 °FPassing clouds.16 mph70%30.07 "HgN/A
2:00 PM81 °FPassing clouds.14 mph74%30.07 "HgN/A
1:30 PM81 °FPassing clouds.14 mph74%30.09 "HgN/A
1:00 PM81 °FPassing clouds.14 mph74%30.09 "HgN/A
12:30 PM81 °FPassing clouds.12 mph74%30.09 "HgN/A
12:00 PM81 °FPassing clouds.12 mph74%30.09 "HgN/A
Weather by CustomWeather, © 2016

See weather overviewHow to use our weather pages